When you browse on this site, cookies collect data to enhance your experience and personalize the content and advertising you see.
Visit our Privacy Policy to learn more. By continuing to use the site, you agree to this use of cookies and data.
  • în România
  • Lista ţărilor
  • Pe 7 zile
  • Temperatura apei
  • Hartă satelitară
  • Meteo pe hartă
  • Widget-uri
  • user-avatar
    Intrare

    Meteo pe oră la Mauritius

    Astăzi, 26 Iunie, Miercuri

    Timp Temperatura Precipitaţii Vânt Presiune Umiditate
    00:00 +21°C° 0.1 mm 8 m/s 725 mmHg 83%
    01:00 +21°C° 0.1 mm 8 m/s 725 mmHg 83%
    02:00 +21°C° 0.6 mm 8 m/s 725 mmHg 85%
    03:00 +20°C° 0.6 mm 7 m/s 725 mmHg 87%
    04:00 +20°C° 0 mm 6 m/s 725 mmHg 91%
    05:00 +20°C° 1.9 mm 5 m/s 725 mmHg 91%
    06:00 +20°C° 1.9 mm 4 m/s 725 mmHg 91%
    07:00 +20°C° 1.9 mm 4 m/s 725 mmHg 91%
    08:00 +20°C° 2.1 mm 4 m/s 726 mmHg 90%
    09:00 +21°C° 2.1 mm 5 m/s 726 mmHg 90%
    10:00 +21°C° 2.1 mm 6 m/s 726 mmHg 90%
    11:00 +21°C° 2.9 mm 6 m/s 726 mmHg 89%
    12:00 +21°C° 2.9 mm 7 m/s 725 mmHg 89%
    13:00 +21°C° 2.9 mm 7 m/s 725 mmHg 89%
    14:00 +21°C° 1.6 mm 7 m/s 725 mmHg 89%
    15:00 +21°C° 1.6 mm 7 m/s 725 mmHg 89%
    16:00 +21°C° 1.6 mm 6 m/s 725 mmHg 89%
    17:00 +21°C° 0.7 mm 7 m/s 725 mmHg 89%
    18:00 +21°C° 0.7 mm 7 m/s 725 mmHg 89%
    19:00 +21°C° 0.7 mm 7 m/s 726 mmHg 90%
    20:00 +21°C° 0.1 mm 7 m/s 726 mmHg 90%
    21:00 +21°C° 0.1 mm 7 m/s 726 mmHg 90%
    22:00 +21°C° 0.1 mm 7 m/s 726 mmHg 90%
    23:00 +21°C° 0.2 mm 7 m/s 726 mmHg 89%

    Mâine, 27 Iunie, Joi

    Timp Temperatura Precipitaţii Vânt Presiune Umiditate
    00:00 +21°C° 0.2 mm 6 m/s 726 mmHg 89%
    01:00 +21°C° 0.2 mm 6 m/s 726 mmHg 89%
    02:00 +21°C° 0.4 mm 6 m/s 726 mmHg 89%
    03:00 +21°C° 0.4 mm 6 m/s 726 mmHg 89%
    04:00 +21°C° 0.4 mm 6 m/s 725 mmHg 89%
    05:00 +21°C° 0.6 mm 6 m/s 725 mmHg 89%
    06:00 +21°C° 0.6 mm 6 m/s 726 mmHg 90%
    07:00 +21°C° 0.6 mm 6 m/s 726 mmHg 90%
    08:00 +21°C° 0.1 mm 6 m/s 726 mmHg 88%
    09:00 +22°C° 0.1 mm 6 m/s 727 mmHg 85%
    10:00 +22°C° 0.1 mm 6 m/s 727 mmHg 82%
    11:00 +22°C° 0.1 mm 6 m/s 727 mmHg 81%
    12:00 +22°C° 0.1 mm 6 m/s 726 mmHg 80%
    13:00 +22°C° 0.1 mm 6 m/s 726 mmHg 78%
    14:00 +22°C° 0 mm 6 m/s 726 mmHg 78%
    15:00 +22°C° 0 mm 6 m/s 726 mmHg 78%
    16:00 +22°C° 0 mm 6 m/s 726 mmHg 78%
    17:00 +21°C° 0 mm 6 m/s 726 mmHg 80%
    18:00 +21°C° 0 mm 6 m/s 726 mmHg 81%
    19:00 +20°C° 0 mm 6 m/s 727 mmHg 83%
    20:00 +20°C° 0 mm 6 m/s 727 mmHg 82%
    21:00 +20°C° 0 mm 6 m/s 727 mmHg 82%
    22:00 +20°C° 0 mm 6 m/s 727 mmHg 81%
    23:00 +20°C° 0 mm 6 m/s 727 mmHg 81%

    Poimâine, 28 Iunie, Vineri

    Timp Temperatura Precipitaţii Vânt Presiune Umiditate
    00:00 +20°C° 0 mm 6 m/s 727 mmHg 80%
    01:00 +20°C° 0 mm 6 m/s 727 mmHg 79%
    02:00 +20°C° 0 mm 6 m/s 727 mmHg 80%
    03:00 +20°C° 0 mm 6 m/s 727 mmHg 80%
    04:00 +20°C° 0 mm 6 m/s 726 mmHg 81%
    05:00 +20°C° 0 mm 7 m/s 727 mmHg 82%
    06:00 +20°C° 0 mm 7 m/s 727 mmHg 84%
    07:00 +20°C° 0 mm 7 m/s 727 mmHg 85%
    08:00 +20°C° 0.1 mm 7 m/s 727 mmHg 83%
    09:00 +21°C° 0.1 mm 8 m/s 728 mmHg 81%
    10:00 +21°C° 0.1 mm 9 m/s 728 mmHg 78%
    11:00 +22°C° 0.1 mm 9 m/s 728 mmHg 76%
    12:00 +22°C° 0.1 mm 9 m/s 728 mmHg 74%
    13:00 +22°C° 0.1 mm 9 m/s 727 mmHg 72%
    14:00 +22°C° 0 mm 9 m/s 727 mmHg 73%
    15:00 +21°C° 0 mm 9 m/s 727 mmHg 74%
    16:00 +21°C° 0 mm 9 m/s 727 mmHg 75%
    17:00 +21°C° 0 mm 9 m/s 727 mmHg 76%
    18:00 +20°C° 0 mm 8 m/s 728 mmHg 76%
    19:00 +20°C° 0 mm 8 m/s 728 mmHg 77%
    20:00 +19°C° 0.1 mm 9 m/s 728 mmHg 77%
    21:00 +19°C° 0.1 mm 9 m/s 728 mmHg 78%
    22:00 +19°C° 0.1 mm 9 m/s 729 mmHg 78%
    23:00 +19°C° 0 mm 9 m/s 728 mmHg 79%

    29 Iunie, Sâmbătă

    Timp Temperatura Precipitaţii Vânt Presiune Umiditate
    00:00 +19°C° 0 mm 9 m/s 728 mmHg 81%
    01:00 +20°C° 0 mm 8 m/s 728 mmHg 82%
    02:00 +20°C° 0.1 mm 8 m/s 728 mmHg 82%
    03:00 +20°C° 0.1 mm 8 m/s 728 mmHg 82%
    04:00 +18°C° 0.1 mm 8 m/s 727 mmHg 82%
    05:00 +18°C° 0.1 mm 8 m/s 728 mmHg 83%
    06:00 +18°C° 0.1 mm 8 m/s 728 mmHg 83%
    07:00 +18°C° 0.1 mm 8 m/s 728 mmHg 84%
    08:00 +19°C° 0.2 mm 9 m/s 728 mmHg 83%
    09:00 +19°C° 0.2 mm 9 m/s 729 mmHg 81%
    10:00 +19°C° 0.2 mm 9 m/s 729 mmHg 80%
    11:00 +19°C° 0.2 mm 9 m/s 728 mmHg 80%
    12:00 +19°C° 0.2 mm 9 m/s 728 mmHg 79%
    13:00 +19°C° 0.2 mm 9 m/s 728 mmHg 79%
    14:00 +19°C° 0.1 mm 9 m/s 727 mmHg 78%
    15:00 +19°C° 0.1 mm 9 m/s 727 mmHg 78%
    16:00 +19°C° 0.1 mm 9 m/s 727 mmHg 77%
    17:00 +18°C° 0.1 mm 8 m/s 728 mmHg 78%
    18:00 +18°C° 0.1 mm 8 m/s 728 mmHg 79%
    19:00 +18°C° 0.1 mm 7 m/s 728 mmHg 81%
    20:00 +17°C° 0 mm 7 m/s 728 mmHg 80%
    21:00 +17°C° 0 mm 7 m/s 728 mmHg 80%
    22:00 +17°C° 0 mm 7 m/s 729 mmHg 79%
    23:00 +17°C° 0 mm 6 m/s 728 mmHg 80%

    30 Iunie, Duminică

    Timp Temperatura Precipitaţii Vânt Presiune Umiditate
    00:00 +17°C° 0 mm 6 m/s 728 mmHg 80%
    01:00 +17°C° 0 mm 6 m/s 728 mmHg 80%
    02:00 +17°C° 0 mm 6 m/s 728 mmHg 82%
    03:00 +17°C° 0 mm 6 m/s 727 mmHg 83%
    04:00 +17°C° 0 mm 6 m/s 727 mmHg 85%
    05:00 +17°C° 0.1 mm 6 m/s 727 mmHg 85%
    06:00 +17°C° 0.1 mm 6 m/s 728 mmHg 85%
    07:00 +17°C° 0.1 mm 6 m/s 728 mmHg 84%
    08:00 +17°C° 0.1 mm 6 m/s 728 mmHg 81%
    09:00 +19°C° 0.1 mm 6 m/s 728 mmHg 77%
    10:00 +20°C° 0.1 mm 6 m/s 728 mmHg 73%
    11:00 +20°C° 0 mm 6 m/s 728 mmHg 70%
    12:00 +20°C° 0 mm 6 m/s 728 mmHg 68%
    13:00 +20°C° 0 mm 6 m/s 727 mmHg 65%
    14:00 +20°C° 0 mm 6 m/s 727 mmHg 65%
    15:00 +20°C° 0 mm 6 m/s 727 mmHg 66%
    16:00 +20°C° 0 mm 6 m/s 727 mmHg 66%
    17:00 +19°C° 0 mm 6 m/s 727 mmHg 67%
    18:00 +19°C° 0 mm 6 m/s 727 mmHg 68%
    19:00 +17°C° 0 mm 5 m/s 727 mmHg 70%
    20:00 +17°C° 0 mm 5 m/s 727 mmHg 72%
    21:00 +17°C° 0 mm 5 m/s 727 mmHg 74%
    22:00 +17°C° 0 mm 5 m/s 727 mmHg 76%
    23:00 +17°C° 0 mm 5 m/s 727 mmHg 76%

    1 Iulie, Luni

    Timp Temperatura Precipitaţii Vânt Presiune Umiditate
    00:00 +17°C° 0 mm 5 m/s 727 mmHg 75%
    01:00 +18°C° 0 mm 4 m/s 727 mmHg 75%
    02:00 +18°C° 0.1 mm 4 m/s 727 mmHg 78%
    03:00 +18°C° 0.1 mm 4 m/s 726 mmHg 80%
    04:00 +17°C° 0.1 mm 4 m/s 726 mmHg 83%
    05:00 +18°C° 0.1 mm 4 m/s 726 mmHg 83%
    06:00 +18°C° 0.1 mm 4 m/s 726 mmHg 82%
    07:00 +18°C° 0.1 mm 4 m/s 726 mmHg 82%
    08:00 +19°C° 0.1 mm 5 m/s 727 mmHg 77%
    09:00 +19°C° 0.1 mm 5 m/s 727 mmHg 71%
    10:00 +20°C° 0.1 mm 5 m/s 727 mmHg 66%
    11:00 +21°C° 0 mm 6 m/s 727 mmHg 65%
    12:00 +21°C° 0 mm 6 m/s 726 mmHg 63%
    13:00 +21°C° 0 mm 6 m/s 726 mmHg 61%
    14:00 +21°C° 0 mm 6 m/s 726 mmHg 62%
    15:00 +21°C° 0 mm 6 m/s 726 mmHg 62%
    16:00 +20°C° 0 mm 6 m/s 726 mmHg 63%
    17:00 +20°C° 0 mm 6 m/s 726 mmHg 67%
    18:00 +19°C° 0 mm 6 m/s 726 mmHg 71%
    19:00 +17°C° 0 mm 6 m/s 726 mmHg 75%
    20:00 +17°C° 0 mm 6 m/s 727 mmHg 76%
    21:00 +17°C° 0 mm 6 m/s 727 mmHg 78%
    22:00 +17°C° 0 mm 6 m/s 727 mmHg 80%
    23:00 +17°C° 0.1 mm 6 m/s 727 mmHg 81%
    Arată mai mult